TimeEDT,TemperatureF,Dew PointF,Humidity,Sea Level PressureIn,VisibilityMPH,Wind Direction,Wind SpeedMPH,Gust SpeedMPH,PrecipitationIn,Events,Conditions,WindDirDegrees,DateUTC
12:56 AM,39.0,32.0,76,30.12,10.0,Calm,Calm,-,N/A,,Clear,0,2013-10-28 04:56:00
1:56 AM,37.9,32.0,79,30.12,10.0,Calm,Calm,-,N/A,,Clear,0,2013-10-28 05:56:00
2:56 AM,37.0,32.0,82,30.14,10.0,Calm,Calm,-,N/A,,Clear,0,2013-10-28 06:56:00
3:56 AM,36.0,30.9,82,30.15,10.0,Calm,Calm,-,N/A,,Clear,0,2013-10-28 07:56:00
4:56 AM,35.1,30.9,85,30.17,10.0,Calm,Calm,-,N/A,,Clear,0,2013-10-28 08:56:00
5:56 AM,35.1,30.9,85,30.18,9.0,North,3.5,-,N/A,,Clear,360,2013-10-28 09:56:00
6:56 AM,34.0,30.9,89,30.19,9.0,ESE,3.5,-,N/A,,Clear,120,2013-10-28 10:56:00
7:56 AM,34.0,30.9,89,30.20,7.0,SE,3.5,-,N/A,,Partly Cloudy,140,2013-10-28 11:56:00
8:56 AM,37.0,33.1,86,30.24,7.0,SSE,3.5,-,N/A,,Scattered Clouds,160,2013-10-28 12:56:00
9:56 AM,45.0,37.0,74,30.25,9.0,Calm,Calm,-,N/A,,Scattered Clouds,0,2013-10-28 13:56:00
10:56 AM,52.0,34.0,50,30.25,10.0,ESE,3.5,-,N/A,,Scattered Clouds,110,2013-10-28 14:56:00
11:56 AM,55.0,33.1,43,30.27,10.0,Calm,Calm,-,N/A,,Scattered Clouds,0,2013-10-28 15:56:00
12:56 PM,57.0,32.0,39,30.27,10.0,Variable,3.5,-,N/A,,Mostly Cloudy,0,2013-10-28 16:56:00
1:56 PM,57.9,30.9,36,30.25,10.0,Calm,Calm,-,N/A,,Mostly Cloudy,0,2013-10-28 17:56:00
2:56 PM,60.1,32.0,35,30.24,10.0,Calm,Calm,-,N/A,,Mostly Cloudy,0,2013-10-28 18:56:00
3:56 PM,59.0,34.0,39,30.24,10.0,West,3.5,-,N/A,,Scattered Clouds,260,2013-10-28 19:56:00
4:56 PM,60.1,32.0,35,30.24,10.0,Calm,Calm,-,N/A,,Scattered Clouds,0,2013-10-28 20:56:00
5:56 PM,57.9,35.1,42,30.25,10.0,NNW,3.5,-,N/A,,Mostly Cloudy,340,2013-10-28 21:56:00
6:56 PM,53.1,33.1,47,30.27,10.0,NNW,5.8,-,N/A,,Scattered Clouds,340,2013-10-28 22:56:00
7:56 PM,48.9,32.0,52,30.29,10.0,North,6.9,-,N/A,,Scattered Clouds,350,2013-10-28 23:56:00
8:56 PM,48.0,32.0,54,30.30,10.0,North,6.9,-,N/A,,Partly Cloudy,10,2013-10-29 00:56:00
9:56 PM,46.0,33.1,61,30.30,10.0,NE,4.6,-,N/A,,Clear,40,2013-10-29 01:56:00
10:56 PM,42.1,32.0,67,30.33,10.0,NNE,8.1,-,N/A,,Clear,20,2013-10-29 02:56:00
11:56 PM,41.0,34.0,76,30.34,10.0,NE,5.8,-,N/A,,Clear,40,2013-10-29 03:56:00